Regional Weather Roundup
Issued by NWS State College, PA

Home | Current Version | Previous Version | Text Only | Print | Product List | Glossary On
Versions: 1 2 3 4 5 6 7 8 9 10 11 12 13 14 15 16 17 18 19 20 21 22 23 24 25 26 27 28 29 30 31 32 33 34 35 36 37 38 39 40 41 42 43 44 45 46 47 48 49 50
000
ASUS41 KCTP 171910
RWRCTP

REGIONAL WEATHER ROUNDUP
NATIONAL WEATHER SERVICE STATE COLLEGE PA
300 PM EDT THU AUG 17 2017

Note: "fair" indicates few or no clouds below 12,000 feet with no
significant weather and/or obstructions to visibility.

* = STATION THAT DOES NOT REPORT PRECIPITATION /E.G. RAIN...SNOW...ETC/
    THUNDER OR FOG.

PAZ002>004-007>009-013>016-020>023-029>032-172000-
WESTERN PENNSYLVANIA

CITY           SKY/WX    TMP DP  RH WIND       PRES   REMARKS
ERIE           CLOUDY    89  68  49 S16G25    29.86F
MEADVILLE      CLOUDY    83  71  67 VRB7      29.92F
FRANKLIN*      CLOUDY    81  68  65 S12       29.94F
NEW CASTLE     FAIR      86  73  65 VRB6      29.92F
BEAVER COUNTY  MOSUNNY   88  70  55 S8        29.93F
BUTLER*        NOT AVBL
PITTSBURGH INT CLOUDY    87  69  54 S12G17    29.92F
PITTSBURGH     MOSUNNY   86  67  52 MISG      29.93F
INDIANA*       MOSUNNY   88  68  51 SW10      29.98F
LATROBE        MOSUNNY   88  68  51 W14       29.96F
WASHINGTON CO* MOSUNNY   86  70  58 SW9       29.94F
$$

PAZ004>006-010>012-017>019-024>028-033>037-041-042-045-046-049>053-172000-
CENTRAL PENNSYLVANIA

CITY           SKY/WX    TMP DP  RH WIND       PRES   REMARKS
BRADFORD       CLOUDY    80  66  62 VRB6      29.99F
DUBOIS         MOSUNNY   82  64  54 S8        29.98F
CLEARFIELD     MOSUNNY   85  66  53 MISG      29.97F
JOHNSTOWN      CLOUDY    83  63  50 W6        30.01F
ALTOONA        CLOUDY    83  70  64 S6        29.99F
STATE COLLEGE  MOSUNNY   82  68  61 S12       29.98F
WILLIAMSPORT   SUNNY     84  67  56 VRB6      29.95F
SELINSGROVE    PTSUNNY   84  72  67 VRB6      29.97F
FT INDIANTOWN  PTSUNNY   84  69  61 S3        29.97F
CAPITAL CITY   PTSUNNY   85  70  60 E9        29.96F
HARRISBURG     PTSUNNY   86  73  65 SE8       29.95F
YORK           PTSUNNY   85  74  69 SE7       29.97F
$$

PAZ038>040-043-044-047-048-054-055-060>062-067>071-172000-
EASTERN PENNSYLVANIA

CITY           SKY/WX    TMP DP  RH WIND       PRES   REMARKS
SCRANTON       PTSUNNY   85  64  49 VRB7      30.00F
MOUNT POCONO   MOSUNNY   76  64  66 S9        30.06F
ALLENTOWN      MOSUNNY   85  66  53 CALM      29.99F
QUAKERTOWN*    PTCLDY    84  66  54 S7        30.01F
READING        MOSUNNY   85  70  60 SE3       29.97F
LANCASTER      PTSUNNY   84  72  67 E9        29.98F
COATESVILLE    PTCLDY    84  70  61 VRB6G12   30.01F
POTTSTOWN      SUNNY     84  64  50 VRB5      30.00F
BLUE BELL      SUNNY     84  64  51 CALM      30.00F
DOYLESTOWN     MOSUNNY   84  65  52 VRB5      29.99F
WILLOW GROVE   NOT AVBL
NORTH PHILA    MOSUNNY   88  66  48 S7        29.99F
PHILADELPHIA   MOSUNNY   88  63  43 S8        29.98F
$$




USA.gov is the U.S. government's official web portal to all federal, state and local government web resources and services.